Wetbulb
50.67 51.38 51.83 52.28 52.58 52.57 52.63 52.70 52.67 52.82 52.90 53.04 53.00 52.98 53.19 53.17 53.19 53.38 53.69 53.63 53.36 52.99 52.77 52.93 53.04 53.28 53.01 46.07 43.13 50.25 58.23 60.20 60.12 57.70 53.51 52.75 51.25 50.09 47.12 48.13 49.20 47.48 48.57 49.92 51.00 50.73 50.36
51.27 50.87 51.28 51.53 51.63 51.41 51.46 51.37 51.52 52.18 52.63 53.04 53.42 53.69 53.16 53.06 53.19 53.10 53.73 53.70 53.48 53.25 53.03 52.81 52.98 52.74 49.95 41.90 48.47 52.59 54.51 54.57 55.69 56.02 54.28 53.52 51.67 52.38 49.23 48.33 47.61 48.88 49.40 49.36 50.20 50.76 51.46
50.95 51.17 51.29 51.41 51.51 51.46 51.34 51.52 51.37 51.72 52.44 52.65 53.47 53.65 53.85 53.24 53.15 53.01 53.31 53.40 53.21 53.17 53.21 53.14 52.78 51.92 47.11 45.65 49.81 51.11 50.68 50.52 53.22 54.83 52.52 55.30 54.88 50.76 50.08 47.79 50.38 49.21 46.60 48.76 49.72 50.40 49.80
51.54 50.71 50.83 50.85 51.56 51.51 50.89 50.93 51.69 52.10 52.33 52.41 52.39 53.07 53.23 53.11 53.15 53.05 53.03 52.78 52.82 53.09 53.48 53.08 53.46 51.51 43.86 52.35 52.59 51.19 51.88 50.65 51.67 53.87 54.02 54.48 55.21 51.76 50.13 50.87 48.88 46.48 47.13 43.53 48.57 49.41 50.26
50.17 50.77 50.39 50.49 51.05 50.74 50.97 50.73 51.02 50.92 51.50 51.84 52.15 52.61 52.66 52.60 52.62 52.48 52.44 52.33 52.45 52.64 53.39 52.98 51.08 48.89 43.53 52.57 49.39 51.82 54.16 48.40 49.69 50.97 53.84 54.36 52.83 50.07 49.90 46.04 44.61 46.05 41.78 43.45 45.74 49.78 49.97
50.38 50.12 50.12 50.14 50.22 49.64 49.95 49.96 50.80 51.24 51.25 51.46 51.72 51.82 52.28 52.38 52.28 52.01 51.85 51.90 52.01 52.08 53.18 53.08 51.49 44.35 47.26 43.18 49.00 53.18 54.83 52.66 48.45 48.29 50.37 50.58 49.71 46.20 46.68 44.49 38.87 41.90 42.46 44.12 43.94 47.33 48.55
50.22 49.96 50.17 49.66 49.45 48.95 49.25 49.91 49.94 50.47 50.39 50.64 50.89 51.17 51.45 52.30 52.05 52.02 50.95 51.44 46.89 46.04 45.44 41.72 43.97 44.86 46.58 51.16 54.01 49.23 53.83 51.49 50.09 47.56 44.68 48.25 44.72 41.33 43.52 46.40 45.87 45.19 43.65 42.94 45.35 47.12 46.08
49.55 49.26 49.98 49.60 49.13 49.52 49.69 49.38 49.62 50.00 49.60 49.66 50.11 50.73 50.90 51.67 51.85 51.60 51.05 46.29 42.84 44.31 37.36 45.11 45.05 44.81 47.01 48.08 43.88 47.56 53.19 46.16 46.52 41.78 46.31 45.76 41.68 45.54 46.80 47.05 45.20 44.07 42.51 42.84 45.34 46.79 45.47
49.01 49.53 49.24 48.18 48.96 49.19 48.45 49.05 48.58 48.95 49.14 49.19 49.75 50.15 50.49 51.44 51.46 50.67 48.30 46.80 49.94 48.55 39.15 41.86 46.04 44.36 45.21 46.30 41.47 44.27 49.34 47.94 44.66 43.66 42.48 42.60 43.37 46.66 45.95 44.48 42.92 43.43 42.09 42.80 42.66 44.87 46.13
47.95 48.84 49.30 48.78 49.12 49.12 47.52 48.06 47.14 48.30 48.47 48.70 49.79 50.10 50.43 50.57 47.95 49.57 47.37 50.13 51.53 49.87 34.38 37.36 41.50 44.66 45.79 45.09 39.65 46.87 48.14 46.70 43.28 41.55 43.80 41.98 45.25 43.93 44.98 43.41 44.35 40.58 45.32 44.29 43.65 42.69 38.57
47.90 48.15 48.80 48.73 47.65 48.78 48.80 47.49 47.06 48.06 47.80 48.18 49.65 49.44 50.30 50.11 48.45 46.32 48.41 51.40 51.16 47.55 25.81 39.37 41.89 49.93 46.99 42.32 41.94 43.52 47.94 44.45 38.37 40.20 43.69 41.55 41.80 41.58 42.04 43.67 45.70 42.59 46.03 44.51 44.42 42.95 42.16
47.59 47.44 47.76 48.09 47.86 47.91 48.79 48.00 47.78 47.34 47.29 48.10 48.83 49.19 49.78 49.05 50.41 49.38 51.43 51.27 48.75 34.82 25.07 35.55 41.21 40.63 40.78 42.57 41.49 44.89 43.70 46.30 45.53 40.90 43.84 43.92 47.09 45.31 44.45 45.38 46.21 46.67 44.29 44.17 44.29 42.87 36.31
46.56 46.74 47.23 47.34 47.61 48.04 47.87 47.52 46.98 47.15 47.17 48.14 48.17 48.59 48.52 49.28 45.66 50.97 50.67 46.69 34.09 27.86 37.64 35.12 36.06 40.02 39.74 38.54 40.10 40.93 40.46 38.44 37.76 33.76 36.42 41.56 42.57 46.18 47.11 42.79 45.98 45.12 42.28 36.47 34.31 35.30 34.53
46.44 46.83 46.71 46.67 46.86 47.58 47.73 47.07 47.28 47.41 47.18 47.54 47.84 48.33 48.80 48.42 51.02 50.61 46.30 38.69 26.67 31.88 33.66 39.88 38.32 38.74 36.38 39.82 40.17 40.31 39.12 36.66 41.34 39.73 37.67 34.53 33.66 42.26 46.37 44.23 42.18 42.50 42.56 37.87 30.56 32.94 37.64
46.12 46.23 46.36 46.21 46.45 46.58 47.17 47.16 47.29 47.29 46.93 47.09 47.45 47.31 46.42 48.62 50.91 50.26 39.59 29.95 30.63 33.07 36.87 36.10 38.05 34.61 35.43 38.52 38.39 39.15 38.73 37.93 39.58 41.83 35.67 35.19 36.37 44.47 45.56 46.70 45.78 42.44 39.51 44.74 38.83 40.19 38.06
45.44 45.55 45.66 45.68 45.84 46.25 47.22 47.27 46.67 46.41 46.16 46.45 45.11 44.05 43.42 49.71 51.84 46.03 35.09 29.22 33.24 37.97 38.06 37.09 31.94 35.48 31.96 35.43 35.90 38.37 38.06 39.89 39.51 43.12 43.81 40.72 34.97 42.37 44.47 46.97 47.06 45.48 47.07 38.29 39.97 31.81 31.00
45.18 44.99 44.86 45.05 45.33 45.62 45.61 46.14 46.23 45.84 45.65 45.83 43.23 37.98 45.70 50.03 49.81 38.74 28.57 30.78 35.36 39.09 39.16 35.53 34.19 33.68 34.54 33.74 35.71 35.49 37.85 39.69 40.44 40.67 44.26 41.38 40.32 39.93 43.62 42.14 41.88 42.68 41.62 42.96 43.06 40.34 34.51
44.37 44.41 44.50 44.82 44.90 44.96 45.39 45.66 45.94 45.79 45.56 44.20 41.17 31.91 47.40 49.47 34.68 34.92 30.02 33.98 37.65 37.03 39.81 38.07 38.05 36.56 35.19 35.87 34.37 34.61 34.02 38.76 41.41 42.66 39.63 41.67 39.57 36.71 39.83 43.92 46.08 45.65 43.17 43.26 37.59 36.65 39.70
43.72 43.93 44.32 44.80 44.64 44.63 45.07 45.66 45.60 45.77 45.53 44.21 36.30 35.58 46.02 46.48 28.89 30.07 34.59 34.76 36.99 35.93 36.95 36.59 36.02 37.58 38.43 35.09 32.09 35.41 36.72 41.23 41.55 40.13 41.34 44.36 38.50 31.86 34.65 40.11 42.82 41.52 43.00 43.23 44.04 43.12 38.59
43.84 43.89 44.01 44.18 44.13 44.52 44.69 45.23 45.29 45.43 45.66 43.97 36.79 30.95 37.06 39.77 38.43 33.84 32.59 32.48 32.69 38.63 37.40 38.26 36.84 38.37 36.41 34.55 37.60 34.63 36.10 39.13 41.47 42.12 43.22 45.95 41.48 36.98 32.81 36.68 41.68 39.21 41.50 43.01 42.34 37.86 38.26
43.39 43.70 43.85 44.17 44.30 44.26 44.52 44.86 45.13 45.42 45.71 43.63 36.12 32.85 37.12 30.77 31.55 33.03 34.00 34.18 32.39 32.34 37.39 38.31 35.46 35.82 34.46 31.06 33.83 33.38 36.73 38.40 39.83 41.43 42.96 42.70 35.86 39.28 39.84 40.44 41.08 40.43 40.53 41.59 41.11 41.90 38.10
43.06 43.19 43.49 43.70 43.98 44.05 44.22 44.18 44.88 44.65 45.41 40.44 32.56 32.18 36.90 35.28 36.29 32.79 31.61 31.71 32.22 34.63 35.02 33.98 33.72 36.06 36.35 33.16 34.64 32.64 35.99 36.53 35.77 39.21 38.28 40.93 35.84 37.74 35.46 39.13 39.50 37.17 40.02 41.10 41.26 42.60 42.72
43.09 43.08 43.54 43.31 43.42 43.74 43.91 44.59 44.85 44.99 45.14 38.53 39.48 40.60 35.61 33.79 33.67 32.27 32.30 33.25 34.06 36.77 36.80 38.31 37.28 35.15 34.92 36.58 39.34 40.28 40.49 40.39 39.69 37.52 35.86 36.60 37.98 35.32 31.23 36.94 36.55 32.97 38.21 39.98 42.20 44.05 43.76
42.72 42.91 43.21 43.26 43.51 43.81 44.22 44.71 45.01 45.51 45.63 42.13 40.67 39.50 33.01 27.34 32.66 32.89 34.25 35.23 34.68 35.39 35.23 37.94 38.37 35.28 38.93 42.75 42.80 42.07 41.04 39.44 39.82 39.55 40.20 35.55 36.90 37.76 32.19 33.92 25.43 38.06 44.36 44.16 42.93 43.83 45.45
43.77 43.32 43.69 44.10 44.66 44.72 44.92 45.02 45.15 45.44 46.19 42.41 42.28 40.63 34.59 28.92 33.14 33.16 34.53 34.96 36.85 38.18 37.02 37.07 38.59 40.67 41.35 39.00 34.69 32.76 33.28 34.27 36.06 38.77 39.14 39.45 36.93 34.56 31.05 31.28 35.05 37.55 40.46 40.70 41.42 40.36 44.29
44.44 44.29 44.29 44.82 44.89 44.85 45.16 45.32 45.72 45.98 46.35 43.66 42.98 43.99 39.16 34.14 32.35 36.00 34.53 35.74 33.34 34.37 35.47 37.46 40.24 42.13 40.25 36.73 33.66 27.51 26.92 31.27 30.58 33.20 39.28 39.10 39.46 35.75 33.30 28.31 26.00 37.08 42.66 45.69 44.45 35.40 44.88
45.19 45.09 45.04 45.13 45.06 45.21 45.19 45.32 45.72 46.12 46.63 44.73 40.21 45.67 41.02 32.73 36.19 37.75 34.65 35.08 37.34 36.74 34.66 36.34 37.25 36.38 38.61 35.12 30.57 29.58 29.88 35.14 29.86 30.64 30.59 31.71 34.38 31.28 32.08 30.89 34.22 41.59 43.49 46.36 33.56 36.99 45.74
45.21 45.35 45.26 45.24 45.38 45.42 45.40 45.70 45.95 46.14 46.26 44.93 41.78 44.48 41.59 35.30 36.11 39.79 40.76 37.73 37.99 37.46 33.77 37.07 35.92 36.17 34.53 32.56 31.56 31.96 31.73 34.63 33.48 36.10 33.30 32.62 31.56 31.21 32.95 29.70 27.57 43.89 43.42 37.90 43.34 46.48 46.61
45.37 45.40 45.64 45.80 45.78 45.61 45.69 45.68 45.80 46.19 46.60 46.17 38.98 45.07 45.81 38.38 36.75 43.07 43.48 44.61 43.17 42.19 39.25 38.75 37.29 37.87 38.46 34.57 35.46 35.97 33.22 36.72 34.49 30.54 39.79 33.44 37.28 35.08 36.42 36.29 44.53 46.45 45.27 46.16 46.56 45.10 44.52
MSLP
1024.14 1024.22 1024.28 1024.42 1024.11 1023.52 1023.36 1023.20 1023.21 1022.82 1022.72 1022.49 1022.30 1022.13 1021.94 1021.61 1021.21 1020.74 1020.36 1019.84 1019.37 1019.17 1018.30 1018.05 1017.67 1017.45 1016.33 1014.00 1011.84 1010.65 1011.47 1010.80 1010.70 1010.46 1009.40 1008.65 1008.48 1008.02 1007.16 1006.69 1006.82 1006.78 1005.91 1006.00 1005.72 1005.91 1006.20
1024.07 1024.02 1024.20 1024.17 1024.07 1023.48 1023.09 1022.92 1022.90 1022.54 1022.56 1022.44 1022.27 1022.12 1021.78 1021.49 1021.00 1020.49 1019.99 1019.41 1019.00 1018.63 1017.89 1017.54 1017.58 1017.53 1016.50 1013.46 1010.96 1010.79 1011.31 1010.81 1010.53 1010.24 1009.50 1008.71 1007.97 1007.74 1007.28 1006.69 1006.39 1005.81 1006.07 1005.59 1005.47 1005.47 1005.64
1024.16 1023.68 1023.72 1023.95 1023.81 1023.29 1023.10 1022.69 1022.48 1022.56 1022.37 1022.03 1022.02 1021.74 1021.53 1021.27 1020.65 1020.02 1019.32 1018.81 1018.35 1017.89 1017.29 1017.02 1016.85 1016.80 1015.40 1012.62 1010.61 1010.19 1010.96 1010.78 1010.85 1010.39 1009.59 1008.98 1008.39 1008.19 1007.21 1006.78 1006.60 1006.11 1005.96 1005.42 1005.15 1005.02 1005.02
1023.86 1023.59 1023.53 1023.30 1023.56 1023.21 1022.81 1022.70 1022.53 1022.37 1022.17 1021.95 1021.62 1021.32 1021.40 1021.00 1020.32 1019.60 1018.97 1018.28 1017.72 1017.08 1016.49 1015.91 1016.01 1015.93 1013.26 1010.41 1010.57 1009.81 1010.30 1010.32 1010.51 1010.42 1010.19 1009.31 1008.92 1008.28 1007.62 1006.70 1006.52 1006.03 1005.60 1004.51 1003.73 1004.26 1004.86
1023.19 1023.14 1023.21 1023.00 1022.99 1022.97 1022.87 1022.64 1022.33 1022.27 1021.86 1021.62 1021.68 1021.38 1020.91 1020.65 1019.89 1019.43 1018.43 1017.62 1017.04 1016.38 1016.03 1015.24 1015.54 1014.96 1011.43 1010.60 1010.35 1009.17 1009.75 1010.28 1009.85 1009.98 1010.01 1009.62 1008.98 1008.06 1007.34 1006.70 1005.80 1005.37 1004.01 1003.69 1003.40 1003.94 1004.26
1023.41 1023.03 1022.80 1022.66 1022.94 1022.77 1022.58 1022.70 1022.25 1021.74 1021.67 1021.66 1021.51 1021.10 1020.76 1020.43 1019.82 1019.16 1018.24 1016.92 1015.92 1015.88 1015.23 1014.98 1014.87 1014.77 1010.81 1009.51 1008.93 1009.07 1009.23 1009.98 1009.63 1009.57 1009.58 1009.15 1008.37 1007.42 1006.71 1005.70 1004.02 1003.85 1003.83 1003.41 1003.21 1003.51 1003.94
1022.74 1022.83 1022.85 1022.47 1022.74 1022.57 1022.15 1022.19 1022.08 1021.69 1021.49 1021.52 1021.33 1020.92 1020.66 1020.22 1019.60 1018.91 1017.74 1015.72 1015.37 1015.00 1014.77 1014.16 1012.96 1011.78 1010.69 1010.12 1009.32 1008.69 1009.14 1009.65 1009.29 1008.98 1008.11 1007.93 1007.31 1005.59 1005.09 1005.00 1004.69 1003.80 1003.79 1003.27 1002.77 1003.47 1003.68
1022.38 1022.40 1022.55 1022.49 1022.22 1022.15 1021.78 1021.80 1021.78 1021.40 1021.29 1021.63 1021.03 1020.76 1020.44 1020.09 1019.53 1018.83 1017.71 1016.67 1017.91 1018.38 1015.40 1013.13 1012.15 1011.62 1011.15 1011.19 1010.20 1008.77 1008.88 1009.27 1008.84 1007.87 1007.50 1007.26 1005.93 1005.50 1005.62 1005.14 1004.98 1004.49 1004.01 1003.43 1003.24 1003.86 1003.80
1022.15 1022.22 1022.20 1021.97 1021.89 1021.73 1021.65 1021.41 1021.32 1021.13 1021.40 1021.33 1020.82 1020.52 1020.45 1019.88 1019.38 1018.72 1018.02 1017.54 1017.71 1017.77 1015.76 1011.76 1010.78 1010.33 1010.02 1010.49 1009.96 1008.83 1008.56 1008.99 1008.45 1007.68 1006.63 1005.93 1005.41 1005.65 1005.68 1005.04 1004.84 1004.21 1003.92 1003.66 1003.67 1003.80 1003.60
1021.72 1021.89 1021.70 1021.59 1021.57 1021.48 1021.07 1021.17 1021.03 1021.24 1021.16 1020.86 1020.65 1020.33 1020.22 1019.73 1019.45 1018.33 1017.54 1017.65 1017.40 1017.47 1015.38 1011.26 1009.93 1009.35 1009.64 1009.48 1008.90 1008.82 1008.46 1009.08 1008.15 1007.02 1006.46 1006.01 1005.47 1005.49 1005.16 1004.47 1004.36 1003.63 1003.94 1004.17 1004.19 1004.02 1002.51
1021.33 1021.35 1021.28 1021.06 1020.93 1021.16 1020.85 1020.80 1020.94 1020.89 1020.85 1020.56 1020.32 1020.15 1020.03 1019.83 1019.01 1017.91 1017.84 1017.61 1017.28 1017.03 1013.68 1010.18 1009.21 1008.90 1009.00 1008.93 1007.93 1007.54 1007.83 1008.71 1007.90 1007.17 1006.42 1005.27 1005.12 1004.79 1004.67 1004.07 1004.04 1003.80 1003.98 1004.35 1004.24 1003.82 1003.21
1021.05 1020.90 1020.71 1020.61 1020.59 1020.59 1020.44 1020.62 1020.50 1020.53 1020.45 1020.30 1020.02 1019.92 1019.80 1018.94 1018.57 1018.02 1017.78 1017.52 1016.86 1015.53 1011.84 1009.72 1008.82 1008.42 1008.51 1008.08 1007.78 1007.19 1007.43 1007.59 1007.26 1007.20 1006.82 1005.28 1005.04 1004.73 1004.18 1004.17 1004.25 1004.32 1004.47 1004.44 1004.33 1003.76 1002.69
1020.40 1020.21 1020.35 1020.14 1020.21 1020.01 1019.99 1020.08 1020.08 1020.17 1020.14 1019.95 1019.78 1019.74 1019.61 1018.86 1018.02 1018.27 1017.87 1016.81 1015.59 1013.07 1010.86 1010.00 1009.31 1008.54 1007.86 1007.21 1006.92 1007.13 1006.97 1006.89 1005.97 1006.46 1005.62 1004.85 1004.41 1004.25 1004.09 1003.68 1004.11 1004.26 1004.03 1003.53 1003.50 1002.87 1001.76
1019.84 1019.53 1019.69 1019.69 1019.55 1019.58 1019.56 1019.59 1019.55 1019.82 1019.85 1019.68 1019.52 1019.49 1018.72 1018.31 1018.11 1018.31 1017.88 1016.48 1014.18 1011.98 1011.04 1010.36 1009.85 1008.76 1007.57 1007.02 1006.44 1006.65 1006.71 1006.27 1005.83 1005.17 1004.52 1004.37 1003.69 1003.75 1003.60 1003.26 1003.04 1003.23 1002.95 1001.99 1001.93 1001.68 1000.97
1019.13 1018.94 1019.03 1019.07 1018.96 1018.97 1019.11 1019.09 1019.11 1019.38 1019.51 1019.42 1019.26 1018.58 1018.12 1017.59 1017.83 1018.05 1017.89 1015.91 1012.96 1012.07 1011.73 1011.17 1009.98 1008.86 1007.79 1007.35 1007.13 1006.62 1006.46 1006.02 1005.56 1005.01 1004.55 1003.91 1002.85 1002.95 1003.23 1003.09 1002.90 1002.87 1002.58 1002.72 1002.42 1002.63 1001.55
1018.28 1018.18 1018.23 1018.38 1018.39 1018.36 1018.40 1018.56 1018.71 1018.92 1019.19 1019.21 1018.82 1018.06 1017.04 1017.00 1017.28 1017.74 1017.59 1015.18 1013.32 1012.75 1012.42 1011.88 1010.81 1009.95 1008.90 1008.18 1007.33 1006.45 1006.49 1006.85 1006.15 1005.38 1004.87 1003.96 1003.18 1002.64 1002.76 1003.01 1002.70 1002.21 1001.97 1002.66 1002.65 1001.87 1001.17
1017.69 1017.60 1017.63 1017.65 1017.73 1017.69 1018.02 1018.12 1018.32 1018.40 1018.82 1018.98 1018.67 1017.48 1015.88 1016.37 1017.07 1017.40 1016.17 1014.71 1013.41 1013.01 1012.72 1012.27 1011.47 1010.79 1010.02 1009.31 1008.46 1007.47 1007.08 1007.29 1006.99 1005.91 1005.01 1004.69 1003.77 1002.96 1002.64 1002.18 1001.55 1002.15 1001.90 1001.77 1001.51 1001.76 1000.85
1016.80 1016.70 1016.66 1016.75 1016.92 1017.11 1017.31 1017.48 1017.83 1017.95 1018.40 1018.76 1017.98 1016.87 1015.93 1016.29 1016.89 1016.35 1015.53 1014.50 1013.82 1013.07 1012.57 1012.25 1012.04 1011.52 1010.86 1010.33 1009.35 1008.41 1007.87 1007.53 1007.67 1006.61 1005.00 1005.00 1004.29 1003.00 1002.20 1002.21 1001.68 1001.38 1001.43 1001.61 1001.45 1001.42 1001.47
1015.99 1015.96 1015.95 1016.02 1016.26 1016.52 1016.56 1016.78 1017.03 1017.40 1017.70 1017.85 1017.12 1016.39 1016.30 1016.16 1015.68 1015.38 1014.90 1014.10 1013.85 1013.15 1012.33 1011.99 1011.57 1011.67 1011.25 1010.80 1010.18 1008.92 1008.23 1007.95 1007.98 1007.36 1006.71 1005.72 1004.40 1003.64 1002.96 1002.67 1002.45 1001.75 1001.75 1001.92 1001.67 1001.63 1001.04
1015.06 1015.07 1015.10 1015.15 1015.28 1015.43 1015.72 1015.97 1016.38 1016.79 1016.97 1017.75 1017.13 1016.05 1015.79 1015.88 1015.17 1014.83 1014.18 1013.87 1013.26 1012.90 1012.31 1012.08 1011.73 1011.87 1011.50 1011.03 1010.57 1009.55 1008.72 1008.22 1008.16 1007.92 1007.47 1006.23 1005.05 1003.99 1003.04 1002.14 1002.23 1002.39 1002.35 1002.50 1002.19 1001.71 1001.28
1014.10 1014.14 1014.21 1014.27 1014.41 1014.65 1014.90 1015.14 1015.55 1015.98 1016.32 1017.15 1016.67 1015.46 1014.00 1014.26 1014.57 1014.38 1014.18 1013.23 1012.32 1012.09 1012.29 1011.97 1011.67 1011.48 1011.32 1011.11 1010.37 1009.86 1009.33 1008.65 1008.32 1008.21 1007.40 1006.94 1006.02 1005.16 1004.42 1004.00 1003.58 1003.17 1002.79 1002.51 1002.17 1001.95 1001.45
1012.99 1013.04 1013.11 1013.21 1013.42 1013.78 1014.08 1014.33 1014.84 1015.45 1015.65 1016.34 1015.72 1015.47 1014.96 1013.85 1013.42 1013.54 1013.45 1012.41 1012.07 1011.23 1011.48 1011.35 1011.25 1010.97 1011.24 1010.93 1010.63 1009.90 1009.62 1009.31 1008.75 1008.43 1008.21 1007.66 1006.51 1006.18 1005.26 1004.84 1004.38 1003.76 1003.08 1002.61 1002.29 1001.90 1001.55
1011.79 1011.85 1011.89 1012.05 1012.30 1012.60 1013.00 1013.39 1013.93 1014.36 1014.94 1014.88 1015.03 1015.11 1015.19 1013.30 1012.91 1012.70 1011.96 1011.68 1011.01 1011.10 1011.17 1010.89 1011.05 1011.43 1011.21 1011.02 1010.91 1010.62 1010.46 1010.26 1009.94 1009.52 1009.04 1008.42 1007.42 1006.77 1005.85 1005.45 1004.95 1003.91 1002.79 1002.32 1002.02 1001.77 1001.42
1010.56 1010.57 1010.59 1010.74 1011.03 1011.38 1011.74 1012.21 1012.74 1013.13 1013.56 1013.87 1013.86 1014.44 1014.34 1012.98 1012.10 1011.11 1011.03 1011.13 1011.18 1010.81 1010.68 1010.79 1011.30 1011.90 1011.70 1011.86 1011.66 1011.07 1010.55 1010.11 1009.76 1009.45 1009.59 1008.90 1008.30 1007.75 1006.61 1006.28 1004.88 1003.14 1002.64 1002.34 1002.11 1001.93 1001.81
1008.87 1008.92 1009.03 1009.17 1009.45 1009.82 1010.25 1010.64 1011.10 1011.64 1012.22 1013.07 1013.09 1013.36 1013.31 1012.52 1011.55 1010.78 1010.59 1010.54 1010.44 1010.50 1010.61 1011.08 1011.44 1011.86 1012.88 1012.97 1011.91 1010.29 1009.54 1009.43 1008.88 1008.77 1008.94 1009.23 1008.76 1007.98 1007.13 1005.92 1004.29 1003.21 1002.93 1002.83 1002.40 1002.24 1002.71
1006.82 1006.97 1007.16 1007.39 1007.69 1008.08 1008.55 1009.03 1009.50 1010.03 1010.77 1011.60 1012.03 1012.16 1012.57 1012.18 1010.18 1010.10 1009.91 1010.02 1010.28 1010.19 1010.40 1010.80 1012.29 1012.92 1013.10 1012.74 1011.50 1009.80 1008.19 1007.30 1007.57 1007.92 1008.46 1008.87 1008.90 1008.41 1007.68 1006.05 1004.47 1003.23 1003.41 1003.17 1003.07 1002.95 1003.44
1004.85 1005.09 1005.30 1005.57 1005.96 1006.43 1006.96 1007.49 1008.05 1008.68 1009.31 1010.06 1010.44 1011.29 1011.78 1011.27 1010.52 1009.94 1009.14 1009.15 1010.06 1010.48 1010.62 1011.15 1012.13 1012.98 1012.98 1011.97 1010.80 1009.18 1007.77 1007.20 1006.67 1006.65 1007.66 1008.07 1008.20 1007.77 1007.26 1005.92 1004.54 1003.98 1003.87 1003.77 1003.77 1004.74 1004.63
1003.58 1003.61 1003.77 1004.05 1004.41 1004.84 1005.34 1005.89 1006.53 1007.23 1007.93 1008.66 1008.88 1010.04 1010.41 1010.46 1010.26 1009.87 1009.48 1008.84 1009.19 1009.89 1009.86 1010.57 1011.91 1011.96 1011.99 1011.10 1010.02 1008.66 1007.69 1006.70 1006.26 1005.89 1006.58 1006.52 1006.71 1006.89 1006.67 1005.72 1005.01 1004.62 1004.35 1004.53 1005.65 1005.54 1005.71
1002.08 1002.08 1002.21 1002.41 1002.74 1003.17 1003.67 1004.33 1005.03 1005.78 1006.57 1007.53 1007.86 1008.80 1009.70 1010.34 1010.19 1009.72 1009.12 1008.91 1008.52 1008.44 1009.58 1010.19 1009.63 1009.89 1009.68 1009.42 1008.97 1008.13 1007.28 1006.84 1005.93 1005.39 1005.81 1005.67 1005.29 1005.31 1005.13 1004.76 1005.22 1005.38 1005.66 1006.48 1006.79 1006.94 1007.25
Wind_Speed
6 7 8 9 9 8 9 9 11 12 12 12 12 14 15 16 17 17 16 16 17 20 19 19 18 18 13 9 10 8 10 4 3 10 13 15 17 18 17 14 12 19 16 11 13 11 11
6 7 8 8 10 9 8 8 10 10 11 13 13 13 15 16 17 18 18 18 19 21 19 19 17 12 9 15 3 5 9 8 5 11 11 11 10 15 10 12 17 7 19 15 13 13 11
8 7 8 9 10 9 10 11 8 11 11 11 13 14 15 17 18 19 18 20 22 23 21 21 15 10 10 19 6 7 10 11 10 11 14 12 11 10 7 10 14 11 12 14 15 14 15
10 9 8 9 11 10 8 10 12 11 11 12 14 13 14 15 16 17 19 20 23 24 23 16 8 9 11 12 9 6 7 11 14 12 11 11 11 13 10 3 5 15 14 17 15 12 7
10 10 10 12 10 9 11 10 12 13 13 12 14 14 14 16 17 18 20 23 24 18 13 3 7 8 10 3 8 4 2 9 8 13 12 8 8 14 13 13 12 13 15 18 12 11 6
14 12 11 10 10 10 12 12 14 12 10 11 13 14 14 15 16 18 20 25 16 6 2 4 2 7 11 5 4 1 7 7 6 9 11 12 10 13 15 16 17 15 16 14 14 10 12
12 13 14 9 12 12 12 13 14 10 10 12 14 15 16 15 16 17 17 8 3 5 4 8 13 15 15 10 9 5 7 6 7 16 18 18 15 20 23 21 19 13 12 15 10 5 6
12 13 14 12 13 14 11 12 12 10 11 13 14 14 16 16 16 15 10 6 5 6 15 17 23 25 23 15 8 7 4 6 10 15 20 12 20 18 16 19 20 18 15 14 8 5 8
15 16 14 15 16 14 12 13 11 12 11 13 13 13 16 15 16 7 6 4 6 10 9 12 9 9 9 16 9 7 9 10 12 18 18 21 5 15 15 16 19 20 20 15 14 2 10
15 17 15 13 14 14 12 9 10 13 10 12 13 13 13 15 8 6 3 4 9 6 6 3 3 2 5 5 9 21 7 10 9 13 16 15 24 6 20 22 19 20 19 16 11 11 10
16 16 17 14 12 15 12 10 13 12 12 12 12 13 12 9 9 5 8 9 11 3 8 5 3 3 8 8 8 4 25 23 23 19 8 15 11 20 17 18 18 16 7 12 15 13 12
15 15 17 15 14 14 13 12 8 11 12 13 13 12 11 5 4 5 7 11 5 5 5 2 2 4 3 10 6 2 3 16 16 20 17 20 3 13 21 13 12 8 7 7 8 10 13
17 18 18 16 16 15 15 11 8 12 12 12 12 11 10 6 4 2 8 6 5 7 4 4 5 11 11 6 4 8 9 19 12 17 19 17 17 8 10 19 13 15 13 8 9 9 10
19 18 17 17 17 18 15 11 9 12 11 10 11 11 6 7 5 5 3 5 9 2 5 6 6 14 4 7 1 7 6 12 19 17 9 15 9 15 12 13 11 18 19 8 9 10 9
19 18 18 18 17 17 15 13 12 11 9 9 11 6 6 6 8 5 2 8 3 4 3 8 12 6 2 5 6 3 4 3 7 15 11 12 18 11 12 11 15 13 20 16 9 1 5
21 20 18 17 18 18 16 16 12 9 8 8 5 6 10 7 9 6 4 8 6 5 2 3 5 4 5 8 7 5 5 7 6 8 11 5 7 11 17 17 16 10 10 9 10 13 12
19 18 18 18 19 16 18 15 14 8 9 7 4 4 2 9 8 4 8 9 11 12 5 3 3 6 5 6 8 7 7 6 12 12 13 7 6 6 11 15 18 15 13 9 7 13 11
21 20 19 20 18 17 18 16 14 11 9 5 4 5 5 10 6 3 6 8 7 10 14 10 6 7 9 9 8 5 2 5 14 17 7 10 4 8 9 4 8 16 16 19 11 10 7
22 22 22 21 18 20 19 17 15 14 12 3 5 5 4 8 7 10 6 15 11 11 12 9 10 4 3 5 6 5 3 4 10 12 12 2 8 6 11 11 4 9 5 8 12 12 13
24 23 22 22 21 19 19 17 16 17 15 7 3 4 6 6 8 7 17 14 14 14 16 11 7 6 8 11 11 8 8 3 11 8 13 6 4 9 8 2 2 7 8 4 9 8 10
23 22 23 23 22 21 21 20 17 18 17 7 5 5 6 6 11 16 12 6 20 15 15 12 9 15 13 11 10 11 13 13 5 7 6 3 3 1 2 2 1 3 4 4 8 8 7
23 22 22 22 20 20 23 20 18 17 18 9 4 5 4 8 8 15 15 16 18 17 12 12 15 10 13 17 17 12 8 6 6 4 7 7 2 4 2 3 3 5 6 8 7 9 9
24 24 23 22 22 22 21 20 20 21 20 8 6 7 2 11 15 12 14 17 19 20 13 17 13 11 13 13 12 11 12 11 12 8 5 5 4 5 8 2 3 8 13 10 7 7 7
27 27 27 26 25 25 25 24 24 25 24 11 8 7 7 9 12 15 17 16 19 18 19 13 12 9 4 3 8 13 13 13 14 14 10 5 2 3 4 2 7 2 4 2 5 5 5
29 30 30 29 27 27 26 27 27 28 30 13 10 10 6 10 15 20 18 13 16 19 18 12 12 9 3 5 4 8 8 9 13 17 15 13 4 4 5 11 8 6 6 5 7 5 4
32 32 32 29 28 27 26 26 27 27 28 14 11 12 6 6 18 23 18 19 13 14 12 15 7 3 8 4 4 5 5 4 7 7 15 13 11 6 5 7 7 4 7 2 2 5 6
23 26 26 25 24 24 25 26 26 26 27 16 7 18 12 8 9 11 15 15 7 7 4 5 7 6 6 4 5 5 4 1 6 10 9 10 11 13 10 7 4 7 2 4 8 4 12
21 22 24 24 25 25 26 25 26 27 27 19 7 19 15 8 11 14 18 17 12 9 6 8 5 6 4 7 6 5 4 5 4 6 9 11 11 8 11 8 8 4 2 4 7 7 11
24 23 22 24 25 26 27 27 26 26 25 23 5 13 13 9 3 12 15 14 18 17 11 11 6 6 7 7 5 4 4 1 7 4 7 8 6 5 8 5 7 7 10 7 6 6 8
Wind_Direction
323 324 333 331 328 348 349 352 345 341 332 324 325 323 320 320 321 320 316 314 313 305 307 311 312 318 316 250 265 337 334 34 166 199 212 196 202 212 225 221 214 232 250 232 234 237 249
298 305 316 316 322 336 336 343 335 335 331 333 329 316 316 315 316 316 315 311 305 298 301 301 299 300 275 262 248 293 332 330 276 229 237 218 218 219 276 235 221 212 238 243 236 237 245
291 304 304 314 317 317 328 335 312 320 318 315 317 316 315 313 314 316 315 309 302 298 297 297 288 257 253 252 241 282 306 293 303 264 252 246 248 229 239 243 231 237 243 226 229 236 247
303 300 308 308 302 325 315 326 336 332 333 338 333 327 317 313 314 314 310 302 296 300 302 295 261 210 255 240 239 222 267 272 249 254 258 265 246 249 244 277 215 229 235 252 227 215 214
289 297 299 303 309 324 325 319 322 319 329 335 327 327 327 320 322 315 310 302 298 303 306 128 160 225 258 107 239 213 185 248 263 231 237 263 217 226 209 232 225 215 240 222 224 204 171
301 298 287 296 308 316 312 310 311 326 339 339 331 332 328 324 322 316 310 295 294 247 172 166 306 225 241 242 159 128 131 218 219 196 211 221 213 215 218 212 222 224 224 243 239 163 212
285 292 297 289 297 299 298 300 299 328 335 334 329 334 331 328 325 320 316 302 314 198 348 272 281 255 293 338 284 179 146 183 209 202 204 200 212 215 215 220 234 264 250 250 235 172 220
286 288 293 293 289 284 293 291 316 326 332 324 326 331 331 328 321 320 304 58 70 309 295 271 259 260 264 293 296 213 166 214 205 215 210 191 229 226 235 222 231 233 242 241 258 237 232
301 291 277 288 286 285 292 298 308 316 311 318 322 328 327 324 312 283 343 55 350 332 277 303 279 267 245 216 239 235 159 232 231 228 214 224 210 220 218 216 224 228 235 242 260 207 234
288 288 282 278 291 279 285 296 304 303 309 317 317 323 323 321 277 332 319 337 327 325 284 273 267 254 182 220 232 230 218 229 226 243 219 238 241 213 213 225 219 230 225 249 254 262 261
281 290 295 278 279 285 291 274 290 289 307 310 312 317 318 314 304 288 334 325 315 219 301 12 99 99 159 212 332 178 209 220 240 251 215 230 231 225 227 232 228 248 242 232 241 252 269
286 289 289 283 277 280 281 268 283 293 299 300 305 311 319 256 255 305 317 309 260 235 257 335 2 344 246 227 267 115 190 207 227 228 241 258 204 235 230 224 223 237 190 210 223 238 245
283 279 281 282 279 274 276 267 279 286 289 294 306 314 302 294 293 342 306 283 218 239 33 353 332 325 315 288 229 218 177 198 190 200 228 227 236 229 237 223 215 214 204 217 220 205 239
281 279 277 277 278 273 265 263 262 275 284 294 304 308 257 260 271 246 298 223 235 87 271 333 313 311 294 357 248 200 204 202 227 210 223 221 207 205 194 213 193 198 196 209 214 217 232
281 278 276 273 273 279 271 261 259 263 278 295 309 270 255 233 220 211 224 214 250 245 356 324 313 311 345 19 336 223 207 256 229 217 224 209 239 178 209 197 200 201 227 248 263 260 273
273 274 273 274 274 270 265 263 251 253 270 290 287 268 256 210 189 174 203 239 228 233 346 314 283 356 317 346 359 352 203 32 337 273 225 253 241 202 194 201 218 213 169 185 222 233 230
278 274 272 273 267 266 272 268 243 222 261 282 265 255 219 175 169 192 219 220 236 240 247 278 282 285 301 327 332 341 13 84 3 341 228 247 264 154 164 203 204 204 221 235 248 225 245
273 268 268 265 261 261 259 259 240 222 239 247 241 232 125 157 180 189 213 215 251 234 234 240 264 267 273 305 301 304 330 10 343 341 197 205 305 225 191 97 262 213 226 222 229 194 238
277 274 269 263 259 262 256 248 250 223 205 231 228 234 148 199 211 219 232 222 237 229 226 222 230 235 280 279 292 296 320 11 9 360 347 7 212 214 235 221 200 203 197 265 241 265 245
270 269 265 263 256 252 251 247 238 221 209 201 250 230 201 201 233 245 217 218 221 229 240 237 252 225 259 258 251 275 291 335 347 0 304 276 221 231 235 207 121 192 192 200 225 230 239
275 271 266 263 258 252 251 243 239 217 213 188 205 230 226 184 218 229 235 274 220 216 219 223 235 240 246 254 238 253 266 280 285 10 353 37 296 227 77 81 106 147 181 193 227 243 250
269 268 264 262 257 245 246 238 233 216 221 210 219 206 215 261 232 205 222 230 239 222 201 211 232 224 233 243 251 269 264 266 297 332 351 346 246 284 188 161 215 251 237 247 244 236 251
271 269 265 258 252 246 242 237 233 226 214 214 200 225 288 233 228 223 228 230 230 231 233 240 230 237 244 254 273 280 285 276 274 291 317 310 258 234 253 184 281 264 234 233 203 203 227
269 269 266 260 254 249 244 238 231 225 217 219 201 208 237 251 244 233 235 221 240 242 238 224 220 227 277 346 279 254 245 240 245 239 232 261 224 218 261 237 239 64 331 225 222 217 219
265 262 259 256 251 247 244 238 233 225 220 211 208 204 211 246 244 244 244 249 249 233 233 212 214 219 207 305 270 239 206 213 227 229 212 219 231 227 228 218 297 259 186 207 210 137 52
257 257 256 253 249 245 238 233 228 223 219 211 214 204 189 243 229 235 237 236 238 240 230 227 105 128 174 223 229 251 209 189 164 168 205 198 221 243 201 233 222 94 96 6 199 200 38
265 255 252 248 244 239 234 230 226 222 219 219 186 204 209 233 248 289 219 225 218 215 191 151 155 187 217 224 229 230 230 300 191 166 161 184 202 217 224 245 260 270 289 221 224 44 343
264 252 247 244 240 235 232 226 221 220 217 213 203 195 197 221 257 245 244 235 199 212 214 151 143 178 186 211 215 200 235 224 245 142 166 180 187 193 227 225 246 354 220 234 19 352 351
271 253 250 243 237 233 228 224 221 216 214 209 180 183 189 206 247 229 251 258 249 216 211 189 192 184 177 203 217 219 218 304 232 214 183 195 204 188 205 212 92 57 74 64 21 5 2